DFH-3

operational
NORAD ID: 23415 Int'l Des: 1994-080 Owner: CHIS Country: CN
MEOCIRCULAR
追跡 地上

DFH-3について

説明を読み込み中...

リアルタイム位置

3D地球を読み込み中...

次回通過

高度履歴

Altitude vs Time

uPlot chart will show altitude changes over time

軌道要素

1 23415U 94080A 26070.52802433 -.00000129 00000-0 00000+0 0 9990
2 23415 13.7339 345.2877 0096977 19.8598 138.1416 1.00959811134687
Epoch: Mar 11, 2026 • Age: 49 hours

現在のステータス

高度 35246.8 km
速度 3.11 km/s
衛星直下点 -2.86°S, 147.52°E
打ち上げ日 Nov 29, 1994
運用期間 31.2 years
タイプ other

技術仕様

分類 Payload
質量 2232.00 kg
乾燥質量 1040.00 kg
総質量 2232.00 kg
長さ 5.70 m
直径 1.70 m
スパン 18.10 m
形状 Box + 2 Pan + Dish
製造者 CAST
バスタイプ DFH-3
フェーズステータス In Orbit
所有者/国 CHIS/CN

大規模コンステレーション

Loading constellations...